Time,TemperatureF,DewpointF,PressureIn,WindDirection,WindDirectionDegrees,WindSpeedMPH,WindSpeedGustMPH,Humidity,HourlyPrecipIn,Conditions,Clouds,dailyrainin,SoftwareType,DateUTC
2013-09-09 00:11:00,61.0,61.0,-100.00,NW,313,-999.0,0.0,100,-99.99,,,-99.99,,2013-09-09 07:11:00,
2013-09-09 00:21:00,61.0,61.0,-100.00,NW,313,-999.0,0.0,100,-99.99,,,-99.99,,2013-09-09 07:21:00,
2013-09-09 00:32:00,61.0,61.0,-100.00,NW,313,-999.0,0.0,100,-99.99,,,-99.99,,2013-09-09 07:32:00,
2013-09-09 01:11:00,61.0,61.0,-100.00,WSW,252,-999.0,2.0,100,-99.99,,,-99.99,,2013-09-09 08:11:00,
2013-09-09 01:43:00,61.0,61.0,-100.00,West,275,-999.0,0.0,100,-99.99,,,0.00,,2013-09-09 08:43:00,
2013-09-09 02:43:00,61.0,61.0,-100.00,SW,214,-999.0,3.0,100,-99.99,,,0.00,,2013-09-09 09:43:00,
2013-09-09 02:53:00,61.0,61.0,-100.00,SW,214,-999.0,3.0,100,-99.99,,,0.00,,2013-09-09 09:53:00,
2013-09-09 03:03:00,61.0,61.0,-100.00,SW,214,-999.0,3.0,100,-99.99,,,0.00,,2013-09-09 10:03:00,
2013-09-09 03:42:00,61.0,61.0,-100.00,WSW,237,-999.0,0.0,100,-99.99,,,0.00,,2013-09-09 10:42:00,
2013-09-09 04:11:00,61.0,61.0,-100.00,WSW,256,-999.0,0.0,100,-99.99,,,-99.99,,2013-09-09 11:11:00,
2013-09-09 04:42:00,61.0,61.0,-100.00,NW,315,-999.0,0.0,100,-99.99,,,-99.99,,2013-09-09 11:42:00,
2013-09-09 05:12:00,61.0,61.0,-100.00,NE,42,-999.0,0.0,100,-99.99,,,-99.99,,2013-09-09 12:12:00,
2013-09-09 05:22:00,61.0,61.0,-100.00,NE,42,-999.0,0.0,100,-99.99,,,-99.99,,2013-09-09 12:22:00,
2013-09-09 05:42:00,61.0,61.0,-100.00,ENE,67,-999.0,-999.0,100,-99.99,,,0.00,,2013-09-09 12:42:00,
2013-09-09 05:52:00,61.0,61.0,-100.00,ENE,67,-999.0,0.0,100,-99.99,,,0.00,,2013-09-09 12:52:00,
2013-09-09 06:11:00,61.0,61.0,-100.00,ENE,74,-999.0,0.0,100,-99.99,,,-99.99,,2013-09-09 13:11:00,
2013-09-09 06:21:00,61.0,61.0,-100.00,ENE,74,-999.0,0.0,100,-99.99,,,-99.99,,2013-09-09 13:21:00,
2013-09-09 06:42:00,61.0,61.0,-100.00,SSE,148,-999.0,0.0,100,-99.99,,,0.00,,2013-09-09 13:42:00,
2013-09-09 07:12:00,61.0,61.0,-100.00,WNW,289,-999.0,0.0,100,-99.99,,,-99.99,,2013-09-09 14:12:00,
2013-09-09 07:21:00,61.0,61.0,-100.00,WNW,289,-999.0,0.0,100,-99.99,,,-99.99,,2013-09-09 14:21:00,
2013-09-09 07:42:00,61.0,61.0,-100.00,NW,304,-999.0,0.0,100,-99.99,,,-99.99,,2013-09-09 14:42:00,
2013-09-09 08:11:00,61.0,61.0,-100.00,West,264,-999.0,0.0,100,-99.99,,,-99.99,,2013-09-09 15:11:00,
2013-09-09 08:22:00,61.0,61.0,-100.00,West,264,-999.0,0.0,100,-99.99,,,-99.99,,2013-09-09 15:22:00,
2013-09-09 08:34:00,61.0,61.0,-100.00,West,264,-999.0,0.0,100,-99.99,,,-99.99,,2013-09-09 15:34:00,
2013-09-09 09:13:00,62.0,62.0,-100.00,SSW,212,-999.0,0.0,100,-99.99,,,-99.99,,2013-09-09 16:13:00,
2013-09-09 09:24:00,62.0,62.0,-100.00,SSW,212,-999.0,0.0,100,-99.99,,,-99.99,,2013-09-09 16:24:00,
2013-09-09 09:44:00,62.0,62.0,-100.00,SSW,193,-999.0,-999.0,100,-99.99,,,0.00,,2013-09-09 16:44:00,
2013-09-09 10:12:00,63.0,63.0,-100.00,SW,217,-999.0,-999.0,100,-99.99,,,-99.99,,2013-09-09 17:12:00,
2013-09-09 10:23:00,63.0,63.0,-100.00,SW,217,-999.0,-999.0,100,-99.99,,,-99.99,,2013-09-09 17:23:00,
2013-09-09 10:34:00,63.0,63.0,-100.00,SW,217,-999.0,-999.0,100,-99.99,,,-99.99,,2013-09-09 17:34:00,
2013-09-09 11:13:00,64.0,64.0,-100.00,SSW,213,-999.0,6.0,100,-99.99,,,-99.99,,2013-09-09 18:13:00,
2013-09-09 11:21:00,64.0,64.0,-100.00,SSW,213,-999.0,6.0,100,-99.99,,,-99.99,,2013-09-09 18:21:00,
2013-09-09 11:42:00,65.0,65.0,-100.00,WSW,249,-999.0,7.0,99,-99.99,,,0.00,,2013-09-09 18:42:00,
2013-09-09 12:12:00,66.0,66.0,-100.00,West,263,-999.0,9.0,100,-99.99,,,-99.99,,2013-09-09 19:12:00,
2013-09-09 12:22:00,66.0,66.0,-100.00,West,263,-999.0,9.0,100,-99.99,,,-99.99,,2013-09-09 19:22:00,
2013-09-09 12:43:00,66.0,66.0,-100.00,SW,230,-999.0,-999.0,100,-99.99,,,0.00,,2013-09-09 19:43:00,
2013-09-09 13:12:00,67.0,66.0,-100.00,NNW,341,-999.0,10.0,97,-99.99,,,-99.99,,2013-09-09 20:12:00,
2013-09-09 13:42:00,65.0,65.0,-100.00,West,269,-999.0,12.0,100,-99.99,,,0.00,,2013-09-09 20:42:00,
2013-09-09 13:53:00,65.0,65.0,-100.00,West,269,-999.0,12.0,100,-99.99,,,0.00,,2013-09-09 20:53:00,
2013-09-09 14:02:00,65.0,65.0,-100.00,West,269,-999.0,12.0,100,-99.99,,,0.00,,2013-09-09 21:02:00,
2013-09-09 15:13:00,65.0,65.0,-100.00,WNW,283,-999.0,-999.0,99,-99.99,,,-99.99,,2013-09-09 22:13:00,
2013-09-09 15:24:00,65.0,65.0,-100.00,WNW,283,-999.0,-999.0,99,-99.99,,,-99.99,,2013-09-09 22:24:00,
2013-09-09 15:43:00,64.0,-99.9,-100.00,WSW,254,-999.0,-999.0,-999,-99.99,,,-99.99,,2013-09-09 22:43:00,
2013-09-09 15:54:00,64.0,-99.9,-100.00,WSW,254,-999.0,-999.0,-999,-99.99,,,-99.99,,2013-09-09 22:54:00,
2013-09-09 16:03:00,64.0,-99.9,-100.00,WSW,254,-999.0,-999.0,-999,-99.99,,,-99.99,,2013-09-09 23:03:00,
2013-09-09 17:12:00,64.0,64.0,-100.00,South,184,-999.0,13.0,100,-99.99,,,-99.99,,2013-09-10 00:12:00,
2013-09-09 17:21:00,64.0,64.0,-100.00,South,184,-999.0,13.0,100,-99.99,,,-99.99,,2013-09-10 00:21:00,
2013-09-09 17:42:00,63.0,63.0,-100.00,North,-999,-999.0,-999.0,100,-99.99,,,-99.99,,2013-09-10 00:42:00,
2013-09-09 17:52:00,63.0,63.0,-100.00,North,-999,-999.0,-999.0,100,-99.99,,,-99.99,,2013-09-10 00:52:00,
2013-09-09 18:42:00,63.0,63.0,-100.00,WSW,258,-999.0,11.0,100,-99.99,,,0.00,,2013-09-10 01:42:00,
2013-09-09 18:52:00,63.0,63.0,-100.00,WSW,258,-999.0,11.0,100,-99.99,,,0.00,,2013-09-10 01:52:00,
2013-09-09 19:02:00,63.0,63.0,-100.00,WSW,258,-999.0,11.0,100,-99.99,,,0.00,,2013-09-10 02:02:00,
2013-09-09 19:42:00,62.0,62.0,-100.00,West,270,-999.0,9.0,100,-99.99,,,-99.99,,2013-09-10 02:42:00,
2013-09-09 20:12:00,63.0,63.0,-100.00,SW,231,-999.0,4.0,100,-99.99,,,-99.99,,2013-09-10 03:12:00,
2013-09-09 20:22:00,63.0,63.0,-100.00,SW,231,-999.0,4.0,100,-99.99,,,-99.99,,2013-09-10 03:22:00,
2013-09-09 20:44:00,63.0,63.0,-100.00,SSW,193,-999.0,4.0,100,-99.99,,,0.00,,2013-09-10 03:44:00,
2013-09-09 21:13:00,63.0,63.0,-100.00,South,184,-999.0,0.0,100,-99.99,,,-99.99,,2013-09-10 04:13:00,
2013-09-09 21:24:00,63.0,63.0,-100.00,South,184,-999.0,0.0,100,-99.99,,,-99.99,,2013-09-10 04:24:00,
2013-09-09 21:43:00,63.0,63.0,-100.00,SW,219,-999.0,-999.0,100,-99.99,,,0.00,,2013-09-10 04:43:00,
2013-09-09 21:53:00,63.0,63.0,-100.00,SW,219,-999.0,-999.0,100,-99.99,,,0.00,,2013-09-10 04:53:00,
2013-09-09 22:03:00,63.0,63.0,-100.00,SW,219,-999.0,-999.0,100,-99.99,,,0.00,,2013-09-10 05:03:00,
2013-09-09 23:12:00,62.0,62.0,-100.00,NW,317,-999.0,0.0,100,-99.99,,,-99.99,,2013-09-10 06:12:00,
2013-09-09 23:22:00,62.0,62.0,-100.00,NW,317,-999.0,0.0,100,-99.99,,,-99.99,,2013-09-10 06:22:00,
2013-09-09 23:43:00,62.0,62.0,-100.00,WNW,294,-999.0,0.0,100,-99.99,,,-99.99,,2013-09-10 06:43:00,
2013-09-09 23:52:00,62.0,62.0,-100.00,WNW,294,-999.0,0.0,100,-99.99,,,-99.99,,2013-09-10 06:52:00,